SPADEX-A

operational
NORAD ID: 62459 Int'l Des: 2024-253 Owner: ISRO Country: IN
LEOCIRCULAR

About SPADEX-A

Description loading...

Live Position

Loading 3D Globe...

Upcoming Passes

Altitude History

Altitude vs Time

uPlot chart will show altitude changes over time

Two-Line Element Set

1 62459U 24253A 25315.28535111 .00055803 00000-0 10822-2 0 9990
2 62459 54.9970 276.7687 0007894 42.6149 317.5494 15.47171459 48581
Epoch: Nov 11, 2025 • Age: 25 hours

Current Status

Altitude 420.2 km
Velocity 7.66 km/s
Sub-Earth Point 16.86°N, 116.36°E
Launch Date Dec 30, 2024
Age 0.8 years
Type other

Technical Details

Classification Payload
Mass 220.00 kg
Dry Mass 180.00 kg
Total Mass 220.00 kg
Length 1.00 m
Diameter 0.50 m
Span 2.50 m
Shape Box+ 2 pan
Manufacturer ISRO
Bus Type SPADEX
Phase Status In Orbit
Owner/State ISRO/IN

Large Constellations

Loading constellations...